Regional Weather Roundup
Issued by NWS

Home | Current Version | Previous Version | Text Only | Print | Product List | Glossary On
Versions: 1 2 3 4 5 6 7 8 9 10 11 12 13 14 15 16 17 18 19 20 21 22 23 24 25 26 27 28 29 30 31 32 33 34 35 36 37 38 39 40 41 42 43 44 45 46 47 48 49 50
000
ASPQ40 PGUM 010114
RWRPQ
WEATHER ROUNDUP FOR THE MARIANAS AND MICRONESIA
NATIONAL WEATHER SERVICE TIYAN GU
1100 AM CHST WED JUL 01 2015

GUZ001>004-010200-
MARIANA ISLANDS-

CITY           SKY/WX    TMP DP  RH WIND       PRES   REMARKS
GUAM AIRPORT   MOSUNNY   88  73  62 NE10      29.85F HX  96
ANDERSEN AFB   PTSUNNY   86  77  74 NE10      29.86F HX  97
ROTA AIRPORT   NOT AVBL
TINIAN AP      NOT AVBL
SAIPAN AP      SUNNY     88  75  66 NE14      29.84F HX  97

$$

PMZ161-010200-
REPUBLIC OF PALAU-

CITY           SKY/WX    TMP DP  RH WIND       PRES   REMARKS
KOROR AP       PTSUNNY   84  77  79 SW16G24   29.86S HX  94
KOROR WSO      CLOUDY    86  75  70 W17       29.86F HX  95

$$

PMZ171>174-010200-
FEDERATED STATES OF MICRONESIA-

CITY           SKY/WX    TMP DP  RH WIND       PRES   REMARKS
YAP AIRPORT    PTSUNNY   84  77  79 SW9       29.83F HX  94
CHUUK AP       LGT RAIN  79  77  94 SW12      29.76F
POHNPEI AP     CLOUDY    84  77  79 SW9       29.72F HX  94
POHNPEI WSO    CLOUDY    84  77  79 W7        29.76  HX  94
KOSRAE AP      NOT AVBL

$$

PMZ181-010200-
REPUBLIC OF THE MARSHALL ISLANDS-

CITY           SKY/WX    TMP DP  RH WIND       PRES   REMARKS
KWAJALEIN AP   MOSUNNY   84  73  70 E8        29.79S HX  91
MAJURO AP      NOT AVBL
MAJURO WSO     LGT RAIN  81  77  89 CALM      29.80S

$$



USA.gov is the U.S. government's official web portal to all federal, state and local government web resources and services.